SL-12 R/B(AUX MOTOR), 19755

Orbit data source: Space-Track

SL-12 R/B(AUX MOTOR), 19755 is space debris in HEO originally from a launch on Tue, 10 Jan 1989 UTC launched from the Tyuratam Missile And Space Complex (TTMTR). Debris objects in space refer to the collection of defunct objects orbiting the Earth. Examples of debris include non-operational satellites, rocket bodies, and fragments generated from explosions, collisions, or faulty payload assembly.

Loading next visibility...
Identifier
19755, 1989-001G
Orbit
HEO
Country
Flag of CISCIS
Related business
Manufacturer
NPO Energiya
Mission
Spacecraft
Bus & Motor
SOZ, Unknown motor
Mass
Wet unknown, ~60 kg dry
Launch date (UTC)
1989-01-10 (37 years ago)
Launch vehicle
Unknown
Launch site
Tyuratam Missile And Space Complex (TTMTR)
Object type
Payload
Rocket body
Debris
Shape & HBR
Cyl, 0.6 m
Radar Cross Section
0.660 m², Medium (>0.1 m² and < 1m²)

Expand to show TLE details & history
Last TLE update: 1 day ago

TLE from 1 day ago
0 SL-12 R/B(AUX MOTOR)
1 19755U 89001G   26073.29399406  .00000030  00000-0  36959-3 0  9993
2 19755  65.2842  42.7808 5540425  81.8602 334.4809  4.25601186577075
Epoch: 2026-03-14T07:03Z
TLE epoch observation values (Epoch: 2026-03-14T07:03:21.086Z)
Latitude
-0.0001°
Longitude
125.00458°
Altitude
3,954.393 km
Speed
7.238 km/s
True Right ascension
02h 51m 02s
True Declination
0° 00' 00"
Sunlit
Object was in daylight at epoch
Visualization orbit readout
Latitude
Unknown
Longitude
Unknown
Altitude
Unknown
Speed
Unknown
Apparent Right ascension
Unknown
Apparent Declination
Unknown
Sunlit
N/A
Visualization observer readout
Local Sidereal Time
16:01:50
Azimuth
Unknown
Elevation
Unknown
Doppler factor
Unknown
Orbital elements
Apogee altitude
18,615.683 km
Perigee altitude
794.242 km
Semi-major axis
16,083.1 km
Eccentricity
0.55404
Inclination
65.2842°
RAAN
42.7808°
Arg. of periapsis
81.8602°
True anomaly
278.25136°
Mean anomaly
334.4809°
Eccentric anomaly
310.25408°
Mean motion
1.06411 °/min
Orbital period
338.31 mins
BSTAR
0.00036959
Loading maneuver chart data...
Computing Atmospheric mass density...
Loading historical data...
Loading historical data...
Loading historical data...
Loading historical data...
Loading historical data...
Loading historical data...
Loading historical data...

Documentation

Showing up to 5 results
|